{"data":{"norad_id":53902,"epoch":"2026-05-24T19:50:36.023712Z","epoch_age_seconds":100307,"freshness":"FRESH","line1":"1 53902U 22119S   26144.82680583  .00003757  00000+0  25417-3 0  9994","line2":"2 53902  53.2142 292.0783 0001777  91.1500 268.9695 15.08816281203883","mean_motion":15.08816281,"eccentricity":0.0001777,"inclination_deg":53.2142,"raan_deg":292.0783,"arg_perigee_deg":91.15,"mean_anomaly_deg":268.9695,"bstar":0.00025417,"rev_number":20388,"period_min":95.439054981937,"perigee_km":538.58656917948,"apogee_km":541.04520963638,"semimajor_km":6917.9528894079,"source":"CELESTRAK","updated_at":"2026-05-25T13:38:17.584796Z"}}